Date String (YYYY-MM-DD hh:mm:ss) UTC,Instrument flags,absolute air pressure of the measurement (hPa),sample flow rate (lpm),inlet stack bypass flow (lpm),air temperature of the measurement (°C),ambient temperature measured by the external sensor (°C),aerosol sample conditioner tube jacket temperature (°C),OPC LED temperature (°C),internal box temperature (°C),relative humidity of the measurement (%),span deviation,mass concentration of particles derived from Lorenz-Mie calculation of OPC scattering (μg/m³),mass concentration of particles derived from Lorenz-Mie calculation of OPC scattering (μg/m³),mass concentration of particles derived from Lorenz-Mie calculation of OPC scattering (μg/m³)
DateTimeUTC,F1_M11,P_M11,Q1_M11,Q2_M11,T1_M11,T2_M11,T3_M11,T4_M11,T5_M11,U1_M11,ZSPAN_M11,X2_M11,X0_M11,X1_M11
2024-04-09 09:00:00,SystemResetWarning,0829.3,5.01,000.00,021.7,021.0,000.0,030.3,023.4,013.5,0000.0,0003.32,0009.66,0002.07
2024-04-09 09:01:00,SystemResetWarning,0829.4,5.00,000.00,021.7,021.0,000.0,030.2,023.4,013.6,0000.0,0003.33,0009.50,0002.08
2024-04-09 09:02:00,SystemResetWarning,0829.3,5.00,000.00,021.7,021.0,000.0,030.2,023.4,013.5,0000.0,0003.30,0009.39,0002.09
2024-04-09 09:03:00,SystemResetWarning,0829.3,5.00,000.00,021.7,021.0,000.0,030.2,023.4,013.5,0000.0,0003.28,0009.68,0002.11
2024-04-09 09:04:00,SystemResetWarning,0829.3,5.00,000.00,021.6,020.9,000.0,030.2,023.4,013.5,0000.0,0003.29,0009.36,0002.12
2024-04-09 09:05:00,SystemResetWarning,0829.3,5.00,000.00,021.6,020.9,000.0,030.2,023.4,013.5,0000.0,0003.29,0009.76,0002.12
2024-04-09 09:06:00,SystemResetWarning,0829.4,5.00,000.00,021.6,020.9,000.0,030.2,023.4,013.6,0000.0,0003.30,0009.71,0002.13
2024-04-09 09:07:00,SystemResetWarning,0829.4,5.00,000.00,021.6,020.9,000.0,030.2,023.4,013.6,0000.0,0003.27,0009.56,0002.12
2024-04-09 09:08:00,SystemResetWarning,0829.4,5.00,000.00,021.6,020.9,000.0,030.2,023.4,013.6,0000.0,0003.23,0008.78,0002.12
2024-04-09 09:09:00,SystemResetWarning,0829.4,5.00,000.00,021.6,020.9,000.0,030.2,023.4,013.6,0000.0,0003.20,0009.06,0002.10
2024-04-09 09:10:00,SystemResetWarning,0829.4,5.00,000.00,021.6,020.9,000.0,030.2,023.3,013.6,0000.0,0003.19,0009.73,0002.10
2024-04-09 09:11:00,SystemResetWarning,0829.3,5.00,000.00,021.6,020.9,000.0,030.1,023.3,013.5,0000.0,0003.20,0009.93,0002.11
2024-04-09 09:12:00,SystemResetWarning,0829.4,5.00,000.00,021.6,020.9,000.0,030.1,023.3,013.5,0000.0,0003.20,0009.93,0002.13
2024-04-09 09:13:00,SystemResetWarning,0829.3,4.99,000.00,021.6,020.8,000.0,030.1,023.3,013.4,0000.0,0003.17,0009.89,0002.14
2024-04-09 09:14:00,SystemResetWarning,0829.3,4.99,000.00,021.5,020.8,000.0,030.1,023.3,013.4,0000.0,0003.20,0009.30,0002.15
2024-04-09 09:15:00,SystemResetWarning,0829.3,5.01,000.00,021.5,020.8,000.0,030.1,023.3,013.3,0000.0,0003.20,0009.35,0002.15
2024-04-09 09:16:00,SystemResetWarning,0829.3,5.00,000.00,021.5,020.8,000.0,030.1,023.3,013.3,0000.0,0003.23,0009.68,0002.17
2024-04-09 09:17:00,SystemResetWarning,0829.3,5.00,000.00,021.5,020.8,000.0,030.1,023.3,013.3,0000.0,0003.24,0009.78,0002.17
2024-04-09 09:18:00,SystemResetWarning,0829.3,5.00,000.00,021.5,020.8,000.0,030.1,023.3,013.3,0000.0,0003.28,0010.00,0002.20
2024-04-09 09:19:00,SystemResetWarning,0829.3,5.00,000.00,021.5,020.8,000.0,030.1,023.3,013.3,0000.0,0003.34,0010.32,0002.21
2024-04-09 09:20:00,SystemResetWarning,0829.3,5.00,000.00,021.5,020.8,000.0,030.1,023.2,013.3,0000.0,0003.37,0011.43,0002.23
2024-04-09 09:21:00,SystemResetWarning,0829.3,4.99,000.00,021.5,020.8,000.0,030.0,023.2,013.2,0000.0,0003.39,0011.45,0002.24
2024-04-09 09:22:00,SystemResetWarning,0829.2,4.99,000.00,021.5,020.8,000.0,030.0,023.2,013.2,0000.0,0003.42,0011.82,0002.24
2024-04-09 09:23:00,SystemResetWarning,0829.2,5.00,000.00,021.5,020.8,000.0,030.0,023.2,013.2,0000.0,0003.41,0011.90,0002.22
2024-04-09 09:24:00,SystemResetWarning,0829.2,5.00,000.00,021.4,020.8,000.0,030.0,023.2,013.2,0000.0,0003.44,0011.54,0002.21
2024-04-09 09:25:00,SystemResetWarning,0829.2,5.00,000.00,021.4,020.8,000.0,030.0,023.2,013.2,0000.0,0003.43,0011.69,0002.21
2024-04-09 09:26:00,SystemResetWarning,0829.2,5.00,000.00,021.4,020.8,000.0,030.0,023.2,013.2,0000.0,0003.40,0011.55,0002.23
2024-04-09 09:27:00,SystemResetWarning,0829.1,4.99,000.00,021.4,020.7,000.0,030.0,023.2,013.2,0000.0,0003.37,0011.08,0002.24
2024-04-09 09:28:00,SystemResetWarning,0829.1,5.00,000.00,021.4,020.7,000.0,030.0,023.2,013.1,0000.0,0003.37,0011.64,0002.24
2024-04-09 09:29:00,SystemResetWarning,0829.1,5.01,000.00,021.4,020.7,000.0,029.9,023.1,013.1,0000.0,0003.36,0012.28,0002.26
2024-04-09 09:30:00,SystemResetWarning,0829.1,5.00,000.00,021.4,020.7,000.0,029.9,023.1,013.1,0000.0,0003.33,0012.95,0002.27
2024-04-09 09:31:00,SystemResetWarning,0829.1,5.00,000.00,021.4,020.7,000.0,029.9,023.1,013.2,0000.0,0003.32,0011.84,0002.27
2024-04-09 09:32:00,SystemResetWarning,0829.1,4.99,000.00,021.4,020.7,000.0,029.9,023.1,013.2,0000.0,0003.28,0011.13,0002.26
2024-04-09 09:33:00,SystemResetWarning,0829.1,5.00,000.00,021.4,020.7,000.0,029.9,023.1,013.2,0000.0,0003.25,0011.38,0002.26
2024-04-09 09:34:00,SystemResetWarning,0829.1,5.00,000.00,021.4,020.7,000.0,029.9,023.1,013.2,0000.0,0003.24,0011.54,0002.27
2024-04-09 09:35:00,SystemResetWarning,0829.1,5.01,000.00,021.3,020.7,000.0,029.9,023.1,013.3,0000.0,0003.24,0012.62,0002.28
2024-04-09 09:36:00,SystemResetWarning,0829.1,4.99,000.00,021.3,020.7,000.0,029.9,023.1,013.4,0000.0,0003.25,0012.58,0002.28
2024-04-09 09:37:00,SystemResetWarning,0829.1,5.00,000.00,021.3,020.7,000.0,029.9,023.1,013.4,0000.0,0003.25,0012.52,0002.26
2024-04-09 09:38:00,SystemResetWarning,0829.1,5.01,000.00,021.3,020.6,000.0,029.9,023.1,013.4,0000.0,0003.27,0012.55,0002.25
2024-04-09 09:39:00,SystemResetWarning,0829.1,5.00,000.00,021.3,020.6,000.0,029.9,023.1,013.4,0000.0,0003.24,0011.84,0002.23
2024-04-09 09:40:00,SystemResetWarning,0829.1,4.99,000.00,021.3,020.6,000.0,029.8,023.1,013.3,0000.0,0003.20,0011.34,0002.21
2024-04-09 09:41:00,SystemResetWarning,0829.1,4.99,000.00,021.3,020.6,000.0,029.8,023.0,013.3,0000.0,0003.21,0010.62,0002.18
2024-04-09 09:42:00,SystemResetWarning,0829.1,5.02,000.00,021.3,020.6,000.0,029.8,023.0,013.3,0000.0,0003.19,0010.48,0002.16
2024-04-09 09:43:00,SystemResetWarning,0829.1,5.00,000.00,021.3,020.6,000.0,029.8,023.0,013.4,0000.0,0003.20,0010.59,0002.16
2024-04-09 09:44:00,SystemResetWarning,0829.1,4.99,000.00,021.3,020.6,000.0,029.8,023.0,013.4,0000.0,0003.19,0010.18,0002.16
2024-04-09 09:45:00,SystemResetWarning,0829.1,5.01,000.00,021.3,020.6,000.0,029.8,023.0,013.4,0000.0,0003.18,0009.64,0002.15
2024-04-09 09:46:00,SystemResetWarning,0829.1,5.01,000.00,021.3,020.6,000.0,029.8,023.0,013.4,0000.0,0003.18,0008.82,0002.16
2024-04-09 09:47:00,SystemResetWarning,0829.1,5.01,000.00,021.2,020.6,000.0,029.8,023.0,013.4,0000.0,0003.17,0008.14,0002.16
2024-04-09 09:48:00,SystemResetWarning,0829.1,5.01,000.00,021.2,020.6,000.0,029.8,023.0,013.5,0000.0,0003.18,0008.27,0002.16
2024-04-09 09:49:00,SystemResetWarning,0829.1,5.00,000.00,021.2,020.6,000.0,029.8,023.0,013.6,0000.0,0003.22,0008.50,0002.17
2024-04-09 09:50:00,SystemResetWarning,0829.1,4.99,000.00,021.2,020.5,000.0,029.7,023.0,013.6,0000.0,0003.25,0009.52,0002.17
2024-04-09 09:51:00,SystemResetWarning,0829.1,4.99,000.00,021.2,020.5,000.0,029.7,022.9,013.6,0000.0,0003.26,0009.11,0002.18
2024-04-09 09:52:00,SystemResetWarning,0829.1,5.01,000.00,021.2,020.5,000.0,029.7,022.9,013.6,0000.0,0003.27,0008.99,0002.19
2024-04-09 09:53:00,SystemResetWarning,0829.1,5.01,000.00,021.2,020.5,000.0,029.7,022.9,013.7,0000.0,0003.27,0008.90,0002.21
2024-04-09 09:54:00,SystemResetWarning,0829.2,5.00,000.00,021.2,020.5,000.0,029.7,022.9,013.7,0000.0,0003.26,0008.75,0002.21
2024-04-09 09:55:00,SystemResetWarning,0829.2,5.00,000.00,021.1,020.5,000.0,029.7,022.9,013.5,0000.0,0003.23,0009.58,0002.22
2024-04-09 09:56:00,SystemResetWarning,0829.1,5.00,000.00,021.1,020.5,000.0,029.7,022.9,013.5,0000.0,0003.25,0010.12,0002.23
2024-04-09 09:57:00,SystemResetWarning,0829.1,5.00,000.00,021.1,020.5,000.0,029.7,022.9,013.4,0000.0,0003.26,0010.80,0002.24
2024-04-09 09:58:00,SystemResetWarning,0829.1,5.00,000.00,021.1,020.5,000.0,029.7,022.9,013.5,0000.0,0003.25,0011.09,0002.24
2024-04-09 09:59:00,SystemResetWarning,0829.1,4.99,000.00,021.1,020.5,000.0,029.7,022.9,013.5,0000.0,0003.24,0011.59,0002.24
